Location: Terre Du Lac
(37.9120°N, 90.6250°W)
Time: 13:41:02
(UTC-05:00)

Hubble Space Telescope - Visible Passes

Search period start: 21 May 2018 00:00
Search period end: 31 May 2018 00:00
Orbit: 537 x 541 km, 28.5° (Epoch: 20 May)

Date Brightness Start Highest point End Pass type
(mag) Time Alt. Az. Time Alt. Az. Time Alt. Az.
27 May 3.2 04:50:52 10° S 04:51:36 10° SSE 04:52:20 10° SSE visible
28 May 3.0 04:39:22 10° S 04:41:08 12° SSE 04:42:54 10° SE visible
29 May 2.8 04:29:14 12° S 04:30:40 14° SSE 04:32:58 10° SE visible
30 May 2.6 04:19:18 15° S 04:20:14 16° SSE 04:22:51 10° SE visible
